Wind_Gust
34 34 31 30 29 30 27 25 27 29 25 26 29 32 33 31 33 29 28 27 27 29 29 30 30 29 28 27 27 26 26 25 24 23 23 23 23 22 20 21 20 20 18 18 18 16 17 18 16 15 14 14 12 12 12 11 9 10 11 10 12 10 12 12 13 12 12 8 11 15 16 16 16 16 18 19 21 23 14 18 22 20 21 21 21
31 31 33 30 31 31 29 28 31 31 25 26 27 30 33 33 33 31 28 28 27 30 30 29 27 29 28 29 28 27 27 27 24 24 25 24 23 23 21 21 20 20 18 19 19 18 16 18 18 16 15 14 13 13 13 12 12 12 11 11 12 12 10 13 12 12 9 10 14 14 15 14 16 15 16 20 20 21 21 18 19 20 20 21 22
33 32 32 30 30 31 31 31 30 27 29 26 28 30 30 30 31 33 33 30 29 29 29 29 29 29 27 28 28 27 28 27 25 25 24 24 25 22 22 22 22 21 20 20 20 18 17 17 17 15 14 14 13 13 10 11 10 11 10 11 12 11 10 10 12 13 11 11 13 15 15 14 15 16 15 17 16 19 21 19 21 20 19 18 20
33 32 32 32 32 31 31 32 30 27 28 32 28 26 29 32 32 32 32 32 32 30 29 30 29 29 28 28 28 27 28 26 26 25 26 26 26 25 23 23 23 22 21 21 20 19 19 18 17 15 15 16 15 13 12 11 11 11 10 10 10 11 10 9 10 12 12 12 13 16 15 15 15 13 14 16 17 18 20 20 20 20 18 20 20
34 33 31 32 33 36 33 31 31 31 30 29 30 30 27 30 33 32 34 33 31 30 30 29 29 30 29 29 29 28 27 27 27 26 25 24 25 24 23 23 22 22 22 21 15 19 19 19 18 18 17 17 15 15 14 12 13 13 11 11 11 10 10 11 12 12 14 12 15 14 14 14 14 13 15 18 16 17 15 19 20 19 18 16 17
35 35 32 30 33 34 37 31 32 31 29 29 28 29 29 27 28 30 32 34 33 32 31 30 30 30 29 29 28 27 27 27 27 27 27 26 24 24 23 23 22 23 22 21 21 20 19 19 18 18 18 17 15 14 13 13 12 11 10 10 11 10 11 12 12 12 13 10 15 17 14 17 15 15 15 16 19 19 16 16 17 19 19 18 14
34 35 32 30 29 34 32 34 32 26 30 30 27 28 31 29 28 30 32 33 34 31 31 32 28 28 29 27 27 27 27 27 27 27 27 26 26 25 24 24 23 23 22 22 21 20 19 19 17 16 17 17 16 15 15 14 13 11 11 10 12 10 12 14 13 13 14 13 14 14 15 14 14 17 17 16 17 19 21 18 18 17 17 19 17
33 32 33 33 30 33 31 34 31 30 26 30 31 30 29 30 30 29 31 31 32 31 35 32 28 26 27 27 27 25 26 26 26 26 26 26 25 25 25 25 23 22 21 22 21 20 19 18 18 17 17 17 16 14 14 15 11 12 11 10 10 12 13 11 12 14 15 14 15 14 12 14 12 12 17 17 16 16 19 22 22 20 20 18 18
35 34 34 33 32 32 33 30 32 28 29 30 30 30 29 27 30 32 30 28 27 27 29 31 29 28 27 26 27 26 25 26 25 27 28 26 25 24 24 24 24 23 23 22 22 21 20 18 16 17 11 14 15 12 11 10 13 13 13 12 13 14 14 13 14 14 14 14 16 16 16 15 15 16 17 18 20 20 21 19 19 17 14 18 18
31 32 33 33 32 32 33 28 31 32 28 30 27 30 30 25 26 27 29 29 29 25 26 26 28 27 28 26 25 26 27 26 17 19 16 23 24 24 25 25 24 23 22 23 22 21 20 18 12 16 16 14 15 15 14 15 13 14 15 13 16 15 14 15 16 15 14 15 17 17 16 17 17 18 18 17 15 15 18 20 19 21 20 15 18
31 32 33 34 33 32 33 31 30 31 33 31 27 28 25 26 29 27 27 25 26 25 28 27 27 28 28 27 26 26 25 23 19 19 19 17 19 23 23 23 22 23 23 22 22 21 19 20 17 16 17 13 16 16 16 16 15 15 14 14 12 11 14 16 15 14 16 16 14 17 16 15 17 18 17 16 15 18 19 20 20 22 25 23 26
33 30 32 31 32 33 32 32 32 34 29 30 29 30 26 27 27 29 28 28 30 26 26 28 27 28 28 27 26 24 24 13 20 19 18 18 14 20 21 22 21 22 23 22 22 22 21 20 17 16 17 18 18 16 15 14 15 14 13 12 12 12 11 11 9 13 12 12 13 14 14 14 17 17 17 17 16 16 16 17 19 22 23 25 24
32 32 32 32 31 30 30 32 32 32 32 29 26 29 29 26 27 25 26 26 27 28 28 30 30 29 26 26 26 24 21 15 19 19 17 16 14 15 21 19 23 21 21 22 22 22 21 22 19 18 19 17 17 17 16 15 11 14 15 13 11 12 10 9 8 10 13 11 12 12 14 12 16 17 16 16 16 17 18 19 20 22 21 22 20
30 32 31 32 33 30 30 30 30 29 27 29 28 28 29 29 26 27 27 25 27 25 29 32 28 27 28 25 26 24 22 16 20 19 18 17 15 15 20 20 19 21 22 22 22 22 22 22 22 21 19 18 17 18 17 17 17 16 16 15 15 12 7 8 7 5 7 14 12 10 8 11 17 16 14 14 18 18 20 19 17 16 16 16 17
28 28 29 30 32 31 30 29 31 30 30 30 30 29 28 27 30 26 27 27 27 27 27 28 29 29 27 25 25 24 19 20 19 20 19 18 17 14 22 21 22 22 23 22 23 23 22 23 21 21 21 20 20 19 20 19 18 18 17 16 15 14 12 12 11 11 9 9 12 15 15 16 15 13 12 12 13 12 14 11 11 14 23 22 19
29 28 29 29 30 30 31 31 29 29 29 29 32 31 27 27 29 28 25 28 27 25 24 26 26 27 26 25 24 25 17 23 20 20 20 17 18 21 25 22 22 23 24 23 23 23 22 22 22 21 20 22 16 17 15 19 18 18 18 16 16 15 15 9 7 10 14 14 14 16 15 13 10 15 15 15 13 11 16 20 19 20 18 15 14
28 29 29 29 30 31 31 31 31 30 31 31 32 32 30 29 27 26 26 26 28 29 25 27 27 27 26 25 25 24 19 20 21 20 19 19 15 26 24 25 22 24 24 23 24 23 21 22 21 20 22 22 18 18 16 14 19 19 18 17 16 17 17 15 13 12 14 16 16 14 13 12 13 14 13 13 15 13 14 16 16 16 15 14 14
28 29 29 30 30 32 31 29 30 31 32 33 31 32 31 29 27 27 27 26 27 26 26 27 26 25 24 25 26 24 21 18 21 21 20 21 19 28 26 24 22 23 24 22 23 22 19 15 16 20 21 19 20 17 17 16 19 19 17 18 17 17 18 16 17 15 10 13 14 14 14 14 14 13 13 12 13 12 13 12 15 17 14 14 15
27 29 27 30 30 32 33 30 29 31 33 32 32 31 32 31 28 26 26 26 26 25 26 26 24 25 26 25 15 23 21 18 20 21 21 23 23 26 27 25 25 24 24 24 21 21 16 16 18 17 16 20 24 19 17 17 19 18 18 17 18 17 18 19 18 18 16 16 16 16 15 11 14 16 16 17 15 12 14 13 11 17 14 14 16
24 25 26 28 31 33 32 31 30 29 29 28 28 29 29 30 31 26 26 26 27 25 26 26 25 25 24 25 22 24 19 20 21 23 22 22 23 25 27 26 26 25 23 23 22 19 20 19 17 18 21 24 23 21 19 15 14 17 18 18 18 18 19 19 18 18 16 15 16 15 16 16 16 15 14 14 14 15 16 16 18 15 17 17 17
23 23 25 27 29 31 31 31 31 30 28 26 27 26 29 31 29 29 28 27 27 26 25 25 25 24 23 22 25 24 23 21 19 21 22 24 26 20 26 26 27 26 25 23 23 22 23 23 18 19 25 24 22 21 19 14 9 16 18 18 16 19 19 18 17 11 16 15 15 16 16 15 15 15 15 15 15 15 16 16 16 16 16 16 13
22 23 26 27 30 32 33 31 30 29 29 29 26 27 26 29 28 29 27 24 25 26 24 24 25 23 23 23 21 23 21 23 20 18 21 24 25 25 22 25 23 27 23 23 23 22 22 22 20 17 25 25 23 22 18 12 6 10 17 15 22 26 20 17 18 17 16 17 16 16 16 15 15 15 15 16 16 15 15 14 13 14 15 18 19
23 23 24 24 26 29 30 32 31 28 26 29 28 26 26 26 26 25 27 26 25 24 24 25 24 24 23 23 21 21 17 20 24 22 19 21 24 24 19 16 14 21 24 24 22 22 19 19 19 20 20 21 19 17 15 13 9 14 12 19 24 21 16 17 16 16 16 17 16 15 15 15 15 15 16 15 15 13 13 12 12 14 16 17 18
21 21 20 23 25 25 26 28 28 27 27 27 30 26 26 25 24 25 25 25 25 26 26 27 25 24 24 22 20 20 17 17 16 22 22 21 22 23 20 16 18 20 23 22 20 19 20 19 19 23 21 19 18 17 15 11 15 12 16 21 20 14 15 16 16 15 15 16 15 15 15 15 15 15 15 15 15 15 14 12 14 16 17 18 20
21 21 22 22 25 25 26 26 28 28 28 27 27 29 27 26 25 26 26 28 28 28 27 26 26 24 23 22 21 19 17 17 15 14 15 19 19 21 16 14 14 11 17 20 15 14 16 23 23 22 21 20 18 15 12 15 17 14 15 17 14 15 15 16 16 16 16 16 17 16 16 15 14 15 14 14 12 12 14 16 16 18 19 21 20
20 22 22 22 23 26 26 25 25 27 28 29 25 26 25 26 25 26 27 26 28 29 25 26 27 26 23 23 21 20 18 18 16 15 11 12 12 13 11 10 12 16 18 21 20 24 24 24 24 23 21 20 20 18 16 15 13 14 13 13 16 16 15 16 16 16 16 17 17 16 16 16 16 14 12 12 13 15 15 17 17 18 17 18 18
20 20 21 22 21 24 26 28 27 26 27 26 26 25 27 26 26 26 27 26 29 28 27 27 27 27 27 24 21 19 20 20 18 16 17 17 16 13 15 14 13 16 20 21 19 22 26 23 21 18 15 16 15 15 15 13 15 15 18 18 16 15 15 14 16 15 15 17 17 17 17 17 16 13 12 13 15 14 14 16 16 17 16 16 16
25 22 22 21 26 22 26 14 23 26 27 27 25 24 26 27 29 28 29 30 30 31 29 30 31 30 30 24 23 22 21 21 21 21 21 22 20 18 17 17 18 20 22 22 22 24 25 17 21 21 20 19 20 19 19 19 19 19 19 18 15 18 17 15 14 17 17 18 18 17 16 15 15 15 15 15 15 15 15 15 15 16 15 15 16
22 24 23 22 21 21 24 25 26 27 30 27 13 11 18 24 27 23 23 25 26 27 28 25 28 30 29 26 28 28 24 26 25 12 20 15 25 26 22 21 22 22 18 21 25 23 24 24 22 22 22 23 22 24 23 21 20 21 19 22 19 16 15 14 15 16 16 17 18 18 18 16 15 15 15 16 17 17 15 15 13 14 14 13 15
20 21 28 24 21 22 22 25 25 23 25 23 16 14 13 17 15 14 20 12 13 12 9 24 27 31 33 35 34 34 28 23 17 22 20 19 18 18 17 18 18 24 24 27 25 28 26 26 25 26 27 26 26 24 24 23 23 24 22 14 16 17 17 16 16 18 17 17 18 19 19 18 18 17 18 18 17 16 15 10 13 13 15 21 19
23 24 25 25 22 22 22 23 25 23 24 22 19 18 16 15 16 19 15 11 11 11 12 11 10 15 23 26 18 13 13 22 25 21 21 20 21 25 25 23 27 31 29 28 25 24 25 25 27 27 27 25 24 24 24 24 23 23 22 18 15 17 16 17 17 16 15 17 17 17 17 18 18 17 17 16 16 16 16 13 13 12 17 18 12
26 26 26 22 20 22 25 25 25 24 23 23 22 20 19 17 15 17 17 14 15 15 14 13 12 10 9 16 15 13 16 25 25 23 22 22 24 27 27 28 30 30 28 27 25 21 23 25 25 25 26 23 23 21 23 24 24 23 21 18 16 15 18 18 18 20 19 19 18 15 16 16 16 16 17 17 14 16 16 15 14 15 15 14 9
26 23 25 22 22 22 23 22 22 23 23 24 23 22 23 22 21 16 17 17 18 18 18 17 15 14 14 15 13 15 16 22 26 23 23 24 26 27 28 30 31 30 24 20 19 17 23 23 25 24 25 23 24 23 23 21 23 22 20 20 18 17 18 19 19 20 17 17 17 15 13 11 13 14 11 14 14 12 12 13 16 15 11 10 14
20 22 20 25 24 25 25 22 21 22 21 22 22 24 24 24 21 20 19 16 17 16 18 20 17 14 15 14 15 17 20 23 24 23 24 25 26 26 25 30 29 27 23 25 22 22 23 22 22 23 24 21 22 22 21 21 23 21 19 18 18 19 19 19 20 18 15 15 16 10 10 12 14 14 15 15 15 13 13 12 16 10 11 11 12
21 14 14 15 22 22 23 24 23 23 22 22 22 23 23 22 20 21 22 20 17 16 14 15 16 17 14 10 14 17 20 20 21 22 23 23 23 23 22 25 20 13 11 14 20 21 21 22 21 21 22 21 21 20 21 19 20 19 20 20 20 21 20 21 19 18 18 18 17 13 12 12 18 16 15 14 12 11 11 12 15 11 12 11 12
18 18 18 18 20 20 21 22 24 24 24 25 24 23 20 20 22 21 21 20 17 16 14 14 16 11 17 15 13 15 17 19 21 22 23 25 25 27 27 21 24 22 20 20 21 18 17 19 18 21 21 19 18 19 19 19 18 17 18 21 20 20 20 20 17 16 17 18 14 12 15 18 16 14 14 13 14 13 10 12 10 9 11 12 11
17 19 18 18 17 16 16 19 23 24 17 22 20 22 21 21 20 21 20 21 19 17 18 18 19 18 15 16 15 14 15 16 18 21 22 25 29 28 24 27 26 25 21 20 19 18 16 17 17 18 19 18 18 19 18 19 19 17 14 18 18 19 19 18 17 14 15 14 14 17 18 16 17 17 15 14 13 12 12 10 8 8 11 14 8
16 16 16 18 18 19 18 17 15 12 17 18 22 24 20 20 22 20 20 19 19 21 19 17 12 19 19 16 12 13 19 16 19 14 12 16 23 20 22 23 25 27 24 21 19 17 17 18 17 18 18 19 20 19 19 18 20 18 18 17 18 17 14 17 16 18 13 15 16 15 16 15 15 14 13 13 13 12 10 9 9 11 9 7 9
17 13 15 19 14 20 16 17 16 17 15 17 18 20 20 23 21 20 21 19 19 19 21 21 20 19 18 18 20 20 23 20 19 20 21 22 19 14 18 21 22 21 20 20 19 18 17 17 17 17 17 18 19 19 19 20 20 20 20 20 20 19 19 17 18 15 16 16 16 16 17 16 16 13 14 13 12 10 10 9 9 9 10 11 12
16 16 14 16 16 16 14 13 15 17 16 17 16 18 19 20 20 19 20 21 21 20 22 22 21 19 20 21 23 25 24 24 21 21 21 20 17 15 17 18 20 20 20 18 18 18 17 17 17 17 18 18 19 19 19 19 20 20 21 18 18 18 18 17 18 18 17 15 17 17 19 15 14 14 14 13 13 11 10 11 10 9 9 9 10
16 19 14 13 13 16 14 17 17 15 15 16 18 16 17 18 18 21 23 21 19 20 20 19 19 18 17 19 14 15 22 22 21 21 22 21 16 16 16 16 16 21 17 18 19 19 18 18 18 17 18 18 18 19 20 20 19 20 19 17 16 17 18 16 15 14 15 15 16 17 18 17 16 17 15 13 9 11 12 12 11 11 11 9 9
18 17 15 17 15 16 15 15 17 16 16 14 15 18 18 16 17 19 19 20 18 20 22 19 19 16 15 14 12 12 20 20 19 19 18 18 18 17 16 16 16 16 18 20 19 18 18 18 19 18 18 17 18 17 19 19 19 20 17 16 16 17 18 18 16 14 15 17 16 17 18 19 17 16 15 9 13 13 13 13 12 11 11 11 11
20 19 18 16 17 22 20 18 19 20 18 20 19 15 17 20 19 17 18 17 18 19 21 20 20 17 15 7 11 11 18 18 14 19 19 18 17 16 16 15 15 16 15 17 18 17 17 19 18 16 16 18 18 16 18 17 17 17 17 16 16 16 15 16 16 16 16 16 16 14 14 17 18 18 16 15 13 13 12 11 10 11 10 10 10
19 20 20 21 18 18 17 18 19 19 19 17 17 17 17 18 18 18 18 18 18 18 20 19 19 20 18 18 18 18 19 20 19 17 17 17 18 16 17 16 15 15 14 13 14 16 17 16 16 16 16 16 16 15 16 17 18 18 17 17 16 15 16 16 16 17 17 18 18 19 18 17 17 17 14 13 13 13 12 11 11 11 12 11 10
22 20 21 19 20 20 22 20 19 20 21 24 23 21 19 19 18 17 17 17 17 17 16 16 16 17 15 17 18 19 19 17 15 16 16 16 16 16 15 15 14 15 14 13 12 12 14 15 15 15 13 15 16 17 17 17 17 19 20 18 16 18 16 16 16 15 16 15 20 19 19 19 17 17 16 15 12 11 12 11 12 8 10 10 11
21 20 20 21 22 20 20 22 20 22 21 22 20 20 20 20 20 19 18 17 16 16 16 16 17 17 15 17 16 15 17 16 16 16 14 15 15 15 14 16 15 15 14 13 12 12 12 14 13 12 13 15 16 17 17 16 16 17 18 18 19 18 19 19 19 16 16 16 19 19 19 17 16 15 13 16 15 14 11 11 9 11 11 10 11
23 24 21 20 19 20 20 21 22 22 22 21 21 21 21 20 20 20 17 19 17 16 17 17 17 17 16 17 17 17 17 19 18 17 16 15 15 14 15 15 16 16 15 15 13 14 14 14 14 15 14 16 16 16 17 18 17 17 16 19 19 19 19 19 20 19 19 17 15 17 17 17 16 14 14 13 13 13 11 13 11 9 10 11 12
25 23 23 20 20 21 21 22 24 19 23 21 20 20 20 21 21 21 19 19 19 18 17 16 16 17 15 15 14 15 16 17 17 16 14 13 13 14 14 14 13 16 15 15 13 13 12 12 14 14 14 15 11 16 18 19 18 18 18 19 19 19 20 16 20 20 20 18 16 13 13 15 14 13 14 13 11 14 14 14 12 13 10 11 11
20 22 22 23 22 21 23 25 24 25 23 20 19 21 19 20 20 20 21 21 20 19 17 17 16 16 16 15 14 13 13 13 15 17 17 15 14 13 14 14 13 15 13 12 14 14 13 14 11 12 14 14 15 15 17 18 19 18 18 17 20 21 19 15 16 21 17 17 13 14 14 12 11 11 12 11 12 13 13 11 11 12 13 10 11
18 18 19 21 22 20 19 21 23 24 23 24 24 23 21 21 21 20 19 19 20 20 19 18 17 16 15 15 15 15 16 16 15 14 15 15 14 13 15 14 14 14 12 13 12 13 13 14 14 13 13 14 14 15 16 17 16 17 19 20 20 20 16 16 16 17 19 13 14 13 15 12 12 13 14 13 12 13 12 12 11 12 12 11 10
18 19 19 19 19 19 19 20 20 19 20 20 21 21 22 22 21 20 18 19 18 18 17 18 18 16 15 16 15 16 15 14 14 14 14 13 14 14 15 14 14 14 14 13 13 14 14 14 12 11 11 11 12 15 14 16 16 19 16 17 18 17 17 16 17 13 14 10 13 12 13 13 12 13 14 14 13 13 12 12 12 11 12 12 11
Wind_Speed
15 14 14 15 16 17 16 15 14 12 12 11 8 9 8 8 5 13 6 10 10 11 12 13 14 14 14 13 13 11 11 10 9 9 9 9 9 8 8 8 8 6 5 5 5 4 5 5 5 5 4 5 4 5 4 5 3 1 2 2 1 3 3 1 1 1 2 3 5 7 9 8 7 7 7 9 10 10 3 6 11 10 8 6 6
14 14 14 14 16 15 17 15 15 13 13 13 11 6 9 10 11 10 11 10 10 12 14 13 13 15 14 14 13 12 12 11 10 9 9 10 9 8 7 8 8 7 7 6 7 6 5 5 5 6 5 4 4 4 5 5 5 4 4 3 3 2 3 1 2 0 4 3 5 6 6 6 6 5 7 9 10 9 6 7 8 10 9 7 6
14 13 14 13 12 11 13 13 13 13 14 13 13 10 9 9 8 10 9 11 11 11 13 13 14 14 13 13 13 13 13 12 11 10 10 10 11 9 8 8 8 7 8 7 7 8 6 5 5 5 5 5 4 4 5 5 5 6 5 4 3 3 1 3 1 1 3 4 5 6 5 3 4 6 6 6 9 7 9 9 9 7 7 8 7
12 13 17 16 14 12 11 12 12 14 12 12 14 13 9 10 7 8 9 11 12 12 11 12 12 13 13 14 14 13 13 12 12 11 11 11 10 11 9 8 8 8 7 8 7 7 8 7 6 4 6 6 5 4 5 4 3 4 4 4 4 3 3 3 2 0 1 6 5 6 5 5 3 5 5 5 7 7 7 8 8 8 8 8 8
16 14 14 18 17 16 15 12 10 14 15 14 13 12 12 11 10 10 8 8 10 13 11 11 12 13 12 14 14 13 14 13 13 12 11 10 11 10 10 9 7 8 8 7 7 6 8 8 7 5 6 6 5 5 5 6 4 3 3 4 4 5 3 3 3 2 1 3 3 3 5 4 3 4 5 7 5 5 6 8 8 8 8 8 6
15 12 11 16 15 14 11 11 11 11 9 11 14 13 11 11 11 9 9 11 10 10 15 11 11 14 13 14 13 14 13 13 13 13 11 11 10 9 10 9 8 8 8 8 6 6 6 8 7 7 6 7 6 5 5 6 5 4 4 3 3 5 5 4 3 3 3 5 6 5 3 5 4 3 4 4 6 5 4 4 4 4 6 6 6
8 11 13 13 13 14 13 14 12 12 12 10 10 10 10 10 11 11 10 11 12 12 14 16 12 14 14 14 14 14 14 13 13 12 12 12 11 10 9 9 9 7 7 8 7 6 6 6 6 6 6 7 6 6 5 6 5 4 5 4 2 5 6 5 3 3 4 7 4 5 5 3 5 5 3 4 4 6 7 4 3 2 3 6 6
4 7 11 13 11 13 12 13 15 14 12 11 11 10 10 10 11 11 10 11 11 10 15 20 15 14 13 13 13 13 13 13 13 13 11 11 10 9 9 9 8 8 6 7 7 6 6 6 5 5 5 6 6 6 7 7 6 4 5 4 4 3 5 5 5 3 4 7 5 6 4 4 4 3 2 5 4 2 5 6 7 6 5 5 7
11 10 7 10 10 11 10 10 10 11 12 12 11 11 10 10 9 9 10 10 9 10 12 16 16 16 13 14 13 13 12 12 11 12 12 10 10 9 9 9 8 8 7 7 6 6 5 6 5 5 5 6 8 7 6 6 6 6 5 4 4 5 4 4 6 5 4 6 6 5 5 5 5 6 6 4 7 7 4 4 3 2 3 6 4
15 15 13 10 11 12 12 12 13 11 11 12 10 11 10 10 9 9 9 7 6 3 3 6 12 11 13 14 13 12 11 10 12 17 14 10 10 9 8 8 8 7 7 7 6 5 6 5 5 9 11 12 12 13 12 12 10 7 4 2 5 6 5 4 5 5 5 6 7 7 6 6 6 7 8 8 6 5 6 5 4 3 5 5 4
12 11 12 11 12 12 11 12 12 13 12 10 10 10 9 9 9 9 6 2 2 2 5 8 8 11 13 13 12 11 10 9 17 17 18 16 11 9 8 7 8 8 6 6 6 5 5 5 7 10 11 10 10 13 13 13 13 13 12 9 6 3 6 5 4 4 4 5 7 8 8 8 8 7 6 5 4 6 6 6 6 5 5 7 7
13 12 11 11 11 13 12 11 11 13 12 13 10 11 8 9 9 6 5 5 8 5 4 9 9 9 13 10 9 10 10 11 18 17 16 17 13 10 8 6 7 7 7 7 6 5 5 7 6 7 7 9 9 9 10 12 13 12 11 10 10 10 8 4 2 2 3 4 4 7 7 7 8 8 7 7 7 6 6 7 7 7 6 5 4
8 10 11 9 7 3 3 5 12 11 10 11 10 8 8 8 8 7 7 9 10 8 10 10 9 9 12 13 10 9 8 14 17 17 15 15 13 11 8 7 7 7 6 6 6 6 5 8 7 6 7 14 10 9 9 8 9 12 12 11 8 9 9 8 7 5 1 1 4 7 7 6 9 9 8 8 7 7 7 7 6 7 7 8 7
9 6 5 8 12 10 13 11 10 9 9 9 8 6 6 6 7 7 7 8 8 8 9 10 9 10 14 15 8 8 6 12 17 17 16 15 13 9 8 8 6 7 7 7 6 6 6 9 8 7 8 8 7 9 8 9 7 7 6 4 4 4 4 6 7 4 1 1 3 2 3 1 9 9 8 8 9 8 9 9 9 8 9 7 3
9 8 8 7 7 9 13 12 11 8 7 7 8 8 8 6 5 5 7 7 7 8 10 9 9 11 16 10 7 7 6 14 16 17 16 16 15 10 7 7 7 6 6 7 7 6 6 7 9 9 10 8 7 9 8 8 7 6 5 4 4 3 4 4 4 4 4 5 5 5 2 4 5 5 4 7 8 6 8 6 6 6 7 6 4
9 8 8 11 11 11 12 10 10 9 9 8 7 7 7 8 8 5 5 6 5 6 5 6 10 15 14 7 7 8 8 16 16 16 17 15 16 9 7 6 5 4 3 3 4 5 6 7 9 9 9 7 11 16 10 8 7 6 5 4 6 5 5 2 2 3 2 3 3 5 4 4 6 6 5 4 4 6 7 8 9 9 8 6 5
13 12 14 14 15 13 12 12 10 9 9 9 10 8 7 7 6 6 5 5 5 6 6 9 14 15 11 8 6 7 9 14 18 16 16 16 12 8 7 6 5 5 4 4 5 4 5 8 9 9 9 8 13 15 15 11 7 7 6 5 6 5 4 3 8 10 9 10 10 11 10 9 10 9 11 9 6 7 8 8 8 9 8 7 4
11 12 12 12 11 11 10 10 9 10 10 10 11 9 7 5 5 7 6 7 3 3 8 12 11 9 7 7 7 6 9 12 17 17 17 17 13 10 8 7 6 6 5 5 5 5 5 12 11 9 9 9 16 15 15 10 7 7 5 7 6 5 3 3 5 5 7 8 8 9 10 11 11 10 9 10 8 4 7 7 8 7 8 8 7
5 8 12 11 9 9 10 10 9 10 9 9 11 11 9 8 6 5 4 5 5 6 13 13 11 8 5 6 8 6 9 10 15 17 17 17 13 8 8 8 7 7 6 7 6 6 6 11 15 11 10 13 17 16 15 9 5 6 6 8 7 6 5 5 6 5 4 5 4 5 3 4 5 4 7 14 12 9 6 2 4 9 7 7 8
7 7 7 10 8 9 8 8 8 9 9 9 8 8 7 5 6 7 5 5 5 10 13 8 7 5 5 7 7 6 8 9 11 15 17 17 17 10 8 8 8 8 8 7 7 5 4 6 12 16 17 18 17 17 16 12 4 7 5 7 7 7 7 6 5 5 4 4 4 3 4 4 5 4 4 6 6 6 7 4 3 5 8 9 9
10 10 7 6 9 10 7 7 9 9 9 9 8 8 7 7 5 6 8 8 10 13 11 5 5 6 6 8 7 7 8 10 11 15 16 17 18 14 9 9 8 7 8 7 6 6 6 6 3 15 20 19 18 18 16 13 4 2 4 6 7 10 10 7 7 7 4 4 4 4 5 4 4 5 5 5 5 5 6 6 6 6 7 9 8
6 4 3 8 8 8 8 7 9 7 7 8 8 7 6 4 4 4 6 8 11 10 6 6 5 6 6 7 7 8 10 16 11 13 16 16 17 15 8 9 8 8 8 7 6 6 8 7 6 12 21 21 19 18 16 11 5 0 1 5 16 19 11 8 7 6 5 5 5 5 5 5 4 6 5 5 5 5 5 6 6 6 5 3 7
7 6 10 3 7 8 10 10 8 4 6 7 10 9 8 7 4 1 3 6 10 8 7 7 6 6 7 7 7 7 8 11 19 15 15 15 17 16 10 1 1 4 7 7 7 7 7 8 9 14 17 18 16 15 14 11 7 3 7 15 19 18 13 8 8 6 6 6 5 5 6 5 6 6 5 4 4 4 5 5 6 7 7 8 8
2 6 8 10 7 6 9 11 9 9 9 8 7 8 7 8 6 1 4 9 7 6 5 4 3 1 2 3 2 2 4 7 11 18 16 17 16 18 11 9 7 3 1 4 6 8 8 10 11 17 16 15 15 15 13 10 7 10 14 18 17 13 8 8 7 6 7 7 6 6 6 6 6 6 5 5 4 4 5 5 6 6 8 8 8
1 9 6 6 11 9 10 9 10 9 9 10 9 8 9 9 9 10 9 9 6 7 5 3 3 3 3 1 3 7 3 3 6 9 13 16 16 16 13 8 7 6 3 3 5 7 12 17 17 17 17 16 15 13 11 12 14 12 14 16 13 6 6 7 7 7 7 6 6 6 5 6 6 6 5 4 4 4 6 6 6 7 7 7 6
8 6 7 9 7 10 9 9 9 10 10 10 9 8 8 8 8 9 9 7 5 5 5 4 4 4 4 4 5 8 5 3 5 6 7 6 6 7 10 8 4 8 9 8 13 19 19 17 18 18 17 15 12 9 8 8 11 13 12 9 5 5 5 7 6 6 6 6 7 7 6 6 7 6 5 5 5 5 6 6 7 6 6 6 6
8 3 3 7 6 6 9 7 8 8 8 7 10 10 10 9 10 10 9 7 7 6 6 7 6 5 4 4 3 6 5 5 5 7 5 7 6 7 8 7 7 9 8 9 12 11 15 14 12 12 11 13 13 12 10 8 8 6 6 4 4 4 4 5 7 7 6 7 7 6 6 6 6 6 5 5 6 5 5 7 6 6 6 6 6
6 9 8 1 10 9 4 7 9 6 7 6 6 7 10 12 11 11 11 10 10 9 8 8 8 7 6 5 5 7 8 7 7 8 8 7 7 7 7 8 7 6 8 8 8 8 11 12 13 9 10 10 9 6 5 5 6 6 5 4 2 4 6 10 8 5 7 7 7 7 7 7 7 6 5 5 6 5 6 6 6 7 7 6 6
4 8 8 7 11 8 4 4 6 6 6 6 3 2 4 8 8 8 8 8 9 9 8 7 7 6 6 5 7 11 10 11 10 10 11 11 11 10 9 8 9 8 12 17 13 10 11 11 11 10 9 10 9 8 6 6 6 6 6 5 5 5 4 6 7 6 7 9 9 8 8 7 7 6 6 6 6 6 6 5 6 7 7 6 8
3 1 1 3 5 7 6 6 6 6 7 6 6 4 6 9 6 2 6 4 5 4 8 8 10 10 11 12 15 17 14 8 12 19 17 15 15 16 15 14 13 15 19 22 17 13 12 12 11 11 10 9 9 8 8 7 7 6 6 6 6 5 5 7 7 6 7 8 9 9 8 7 6 6 5 6 6 6 7 6 7 7 8 7 7
3 4 5 5 9 9 9 7 7 7 7 7 7 7 4 6 11 11 8 5 5 6 5 3 4 14 14 14 14 15 12 14 18 17 18 16 17 17 17 17 21 24 23 16 10 11 11 10 9 9 9 9 8 8 8 7 7 7 7 6 6 7 6 7 7 7 7 8 9 8 8 7 7 6 6 6 7 6 6 7 6 7 5 6 7
3 5 5 6 9 9 10 9 9 9 8 8 8 7 6 6 3 9 11 9 10 10 10 9 9 5 7 8 9 3 6 16 19 19 17 18 17 18 19 22 23 24 23 22 13 9 10 11 10 10 9 9 8 8 8 8 8 8 7 7 6 6 8 7 8 9 8 9 9 7 7 6 7 7 6 7 7 5 6 6 6 6 5 4 3
6 5 6 9 12 13 9 7 7 7 7 8 6 5 7 7 7 4 4 8 10 11 11 12 11 11 2 11 13 13 12 14 19 19 19 18 19 18 20 23 24 23 18 12 10 9 10 10 11 10 10 9 9 9 9 8 8 8 8 7 7 7 7 8 9 9 8 9 8 7 6 5 8 8 6 8 7 6 6 6 6 5 5 6 4
10 9 5 5 4 8 11 9 6 5 5 6 7 6 5 3 4 6 6 4 3 4 8 12 12 10 9 4 12 14 16 18 17 19 20 20 19 18 18 17 21 21 17 13 12 11 10 10 10 11 11 9 9 9 9 9 8 9 7 6 8 7 8 8 8 8 8 8 8 6 6 5 5 5 5 6 7 7 7 6 5 4 4 5 6
8 6 10 8 7 8 6 9 9 1 2 4 4 4 3 2 2 5 6 7 6 5 3 2 7 11 6 5 3 12 15 16 17 18 19 19 18 17 16 13 10 4 5 7 10 11 11 11 11 10 10 10 10 10 10 9 8 8 7 8 8 8 8 9 8 8 8 8 8 7 6 5 6 6 6 6 5 5 7 6 4 3 5 7 6
6 5 6 5 4 1 3 4 6 6 3 1 3 3 2 5 5 5 5 5 5 5 3 1 2 5 8 8 6 6 11 15 16 17 18 19 18 20 13 11 11 11 11 11 11 10 9 10 10 10 10 10 9 9 9 8 8 7 8 8 9 8 9 8 8 6 7 8 7 6 7 6 5 6 5 6 5 5 5 3 2 1 3 4 5
7 8 8 9 9 6 4 4 5 4 2 1 2 4 5 5 5 6 6 6 5 5 5 4 2 2 4 5 6 7 8 11 14 17 18 19 23 17 12 13 13 13 11 10 10 9 8 9 9 9 10 9 9 9 9 8 7 8 8 9 9 9 9 9 8 7 7 6 6 7 7 5 6 7 6 6 5 5 5 5 2 3 5 7 6
8 7 7 8 9 9 7 6 4 2 1 0 1 2 5 6 5 7 7 8 8 8 6 5 5 7 7 3 3 4 8 8 10 8 10 14 13 11 10 11 13 13 12 10 10 8 6 7 7 9 9 8 9 9 8 7 8 9 9 9 8 8 10 10 10 10 7 6 6 6 6 5 5 6 5 6 5 5 4 4 6 4 5 6 5
7 8 11 14 10 8 7 7 5 5 2 3 3 4 4 5 5 6 6 6 7 7 7 7 7 7 6 6 6 7 11 8 10 10 11 11 11 8 9 10 11 11 10 9 9 10 8 7 7 7 8 7 7 8 8 8 7 8 9 8 8 8 9 7 9 7 7 6 6 6 6 5 5 5 5 5 5 5 5 4 6 5 5 5 3
8 6 9 13 9 8 7 5 5 5 5 5 4 5 4 5 6 5 3 5 6 6 7 7 8 7 7 8 8 10 10 12 11 11 11 11 9 8 9 10 10 11 10 8 7 8 9 8 8 8 7 6 7 7 7 8 7 8 8 8 8 8 8 7 7 8 7 6 7 6 7 6 5 5 5 5 5 5 5 5 6 5 5 4 3
7 7 6 7 9 8 7 7 6 5 4 4 5 4 1 4 3 3 3 3 4 4 5 6 5 4 6 9 12 12 9 10 10 11 12 12 9 9 9 8 8 9 9 8 8 8 8 8 8 8 7 6 6 7 7 7 7 8 8 6 6 7 7 6 7 6 7 7 7 7 6 6 6 6 6 5 6 6 5 6 6 6 4 4 4
8 7 7 7 6 5 6 7 6 6 5 5 6 5 5 5 2 2 5 6 6 6 5 3 3 4 6 7 6 9 5 6 7 6 6 5 6 6 6 5 5 5 5 6 7 7 8 9 8 8 8 8 7 7 7 7 7 8 6 6 7 7 7 7 7 7 7 7 7 7 6 6 6 6 6 6 5 5 5 5 5 5 6 6 6
8 7 6 5 6 6 5 5 4 5 6 6 5 5 5 3 4 5 3 6 8 7 7 7 5 6 7 6 5 3 4 3 4 6 7 7 8 8 9 7 6 6 6 5 4 6 6 7 7 7 8 8 8 8 8 8 8 6 6 7 7 8 8 7 7 7 7 7 7 8 7 6 6 6 5 5 6 6 5 5 4 5 6 6 5
7 6 6 6 6 6 6 5 6 6 6 6 7 7 6 6 5 2 3 6 3 7 7 7 8 9 8 8 10 10 9 8 6 6 6 5 6 6 6 5 5 6 7 6 7 7 7 8 6 7 7 6 7 7 7 7 8 7 6 8 7 8 8 8 8 8 8 7 8 8 7 7 7 6 6 6 6 6 6 5 5 5 6 5 7
8 8 7 7 7 7 7 7 7 7 8 8 7 7 7 6 5 5 4 3 4 4 4 5 4 4 5 7 8 10 10 9 8 8 6 6 6 7 8 8 8 7 5 4 4 6 6 8 9 7 6 7 7 8 7 7 7 8 8 9 8 8 8 9 9 8 7 7 7 7 7 7 7 7 6 6 6 6 5 6 6 6 6 6 6
9 8 8 8 8 8 8 8 8 7 8 7 7 7 7 7 7 7 5 3 1 2 5 7 6 5 4 6 6 7 8 9 8 9 9 8 8 8 7 7 6 6 5 4 4 5 5 6 7 6 7 7 7 7 8 7 7 7 7 8 9 9 7 7 8 7 7 7 7 6 6 6 6 6 8 6 6 6 5 5 5 6 6 6 7
10 9 9 9 9 9 9 9 9 9 9 8 8 9 9 8 7 6 3 3 3 4 7 7 7 7 7 7 6 7 9 10 9 9 9 8 7 7 8 8 7 6 6 5 6 5 6 7 7 7 7 7 6 7 8 8 7 6 6 6 7 7 7 8 8 8 8 8 7 7 7 7 7 6 7 7 5 6 5 7 6 6 6 7 7
9 9 9 9 9 9 9 9 9 8 9 10 10 10 10 10 9 8 7 6 6 6 7 8 8 8 8 8 7 8 8 8 8 8 8 7 7 7 7 7 7 6 5 6 6 6 6 5 6 6 7 7 5 7 6 7 7 7 6 7 7 7 9 10 8 8 7 8 7 7 7 7 6 6 7 7 6 6 7 6 6 6 6 6 6
8 9 9 9 10 10 10 11 11 10 10 10 10 10 10 10 10 9 8 8 8 8 8 8 8 8 8 7 7 6 7 7 8 8 7 7 7 6 7 7 6 6 6 5 5 6 5 5 5 5 6 6 6 6 6 6 6 5 6 6 8 14 14 13 9 8 10 6 6 8 7 6 6 6 7 6 6 6 6 6 6 6 7 6 6
7 8 8 9 9 9 9 9 9 8 8 7 7 8 10 11 11 11 10 9 9 9 9 9 9 8 8 8 8 8 8 8 8 7 6 6 6 6 7 6 6 5 6 6 6 6 6 6 5 5 5 6 6 6 6 6 5 6 5 8 15 16 13 13 12 13 11 5 6 5 7 5 6 6 5 6 7 8 7 7 6 6 6 6 6
8 9 10 10 9 8 8 8 9 8 8 8 8 9 10 10 11 10 10 10 9 9 8 8 8 8 8 7 7 7 8 7 7 7 7 7 6 5 5 5 5 6 6 6 6 5 5 5 5 4 3 4 4 7 7 7 6 7 10 14 15 13 12 11 10 11 12 8 6 5 6 7 7 7 7 6 6 7 7 8 7 6 6 6 6
Wind_Direction
175 174 179 184 178 186 190 191 194 200 211 217 202 124 178 219 299 304 251 187 187 187 187 186 181 178 178 181 184 187 184 183 189 190 176 172 171 178 180 174 180 174 182 186 188 189 202 198 196 188 181 176 177 165 158 141 162 151 81 92 108 140 146 170 209 129 56 96 124 135 142 146 146 161 155 157 172 194 202 121 143 154 157 160 163
178 177 178 172 175 175 186 190 192 194 202 209 217 173 165 200 191 197 265 250 197 193 189 189 185 180 180 181 181 185 185 183 186 191 178 175 169 177 183 177 179 181 180 206 183 190 190 204 202 188 183 188 176 168 165 159 150 144 152 179 167 144 131 138 198 176 132 115 105 106 128 154 143 154 148 158 172 179 136 141 144 156 162 160 158
180 176 173 165 162 155 164 173 181 186 192 202 211 197 170 223 217 184 179 263 250 200 193 190 186 181 180 179 179 182 185 184 184 187 181 178 172 176 180 180 183 182 183 200 195 182 191 199 211 186 178 185 180 186 159 165 168 173 163 179 155 130 124 139 109 262 142 137 133 136 149 139 135 143 145 157 167 161 146 150 157 160 163 161 162
178 168 178 176 168 153 158 169 165 174 188 199 203 200 190 179 205 213 189 184 245 241 203 195 185 184 181 179 180 181 183 181 182 187 181 179 180 174 180 183 181 184 188 196 205 181 186 192 207 198 174 181 179 185 163 162 179 164 156 157 124 142 161 111 130 94 55 139 163 154 140 132 128 139 133 126 154 153 154 153 161 163 163 171 163
186 169 168 174 173 167 173 167 166 177 185 191 193 196 192 187 189 204 200 198 201 256 231 196 188 189 184 181 181 181 182 179 181 185 180 181 181 179 178 187 185 184 189 201 202 189 185 188 191 203 174 175 182 180 167 170 172 170 172 156 152 159 131 119 131 144 165 132 110 111 131 125 134 136 146 139 130 137 159 164 177 173 159 169 145
185 163 153 166 165 166 168 165 171 175 184 194 193 193 192 188 188 200 193 199 206 214 251 211 195 191 188 182 183 180 179 179 181 184 182 180 182 180 179 183 189 186 189 203 204 193 191 183 184 193 181 179 184 182 172 173 170 165 153 158 159 134 126 133 148 156 157 119 135 127 121 135 128 137 161 144 149 137 161 166 170 173 157 158 129
286 175 163 159 169 170 169 178 181 182 183 194 198 194 193 191 187 187 192 202 200 201 233 234 203 195 190 184 183 179 180 179 180 182 185 182 181 182 176 184 183 187 191 199 206 195 194 186 185 186 185 181 181 177 161 158 174 175 165 155 157 127 143 139 162 172 144 129 136 139 137 145 145 153 165 142 155 148 162 149 176 198 176 133 134
220 287 178 167 162 169 172 176 180 181 183 187 194 197 189 193 199 194 187 192 200 206 220 228 206 197 191 186 183 178 179 178 178 181 185 179 182 177 181 184 182 184 193 197 201 195 191 186 182 187 186 175 176 167 156 159 179 174 148 144 152 147 145 147 159 178 163 140 146 150 143 141 122 121 127 130 139 151 174 172 180 189 186 145 153
172 199 244 180 168 175 175 172 167 172 177 180 180 184 189 193 200 208 204 197 182 197 234 252 216 194 190 185 183 176 180 179 181 179 177 176 176 179 182 187 178 184 191 199 199 196 190 183 170 193 186 140 135 123 128 144 168 147 153 154 153 149 148 154 156 171 190 144 145 147 149 158 155 144 146 150 181 187 161 165 165 124 139 118 119
178 182 187 186 177 178 175 173 177 176 177 183 177 179 188 188 193 210 215 205 186 131 291 272 301 257 194 185 179 175 177 177 182 174 172 172 170 175 181 183 183 186 188 191 201 198 189 179 170 136 121 122 115 109 101 89 81 99 106 114 156 153 162 169 170 178 182 154 163 164 165 177 173 175 176 187 167 140 147 139 115 110 92 86 113
186 186 179 183 182 180 172 176 174 172 176 182 179 181 178 181 185 198 208 115 34 153 193 262 212 264 252 190 173 171 174 175 171 165 164 160 162 172 180 182 182 188 185 188 193 195 196 141 116 119 115 105 103 108 107 103 104 98 90 85 62 157 169 166 181 191 182 178 169 172 176 180 175 174 177 160 164 169 167 155 137 139 162 170 190
172 178 185 187 192 180 172 172 174 176 177 177 175 186 171 170 175 163 144 142 230 187 200 226 223 223 261 241 179 172 175 163 161 160 157 161 159 169 181 181 179 184 191 187 189 185 186 123 134 133 137 132 126 109 103 111 112 107 104 97 90 57 72 115 122 195 188 187 164 181 178 180 165 170 171 169 173 166 164 161 162 162 172 197 195
183 179 180 177 161 238 306 188 176 174 171 171 170 163 156 168 175 171 166 175 192 191 201 208 213 217 241 233 198 178 174 157 157 157 153 158 163 168 180 182 176 188 190 187 189 188 178 134 142 148 132 139 130 125 123 109 102 111 106 104 98 113 110 101 105 114 20 314 174 182 190 181 159 175 176 177 163 161 157 163 170 169 180 193 205
197 183 181 150 180 173 166 214 218 180 157 152 147 133 149 171 178 171 166 173 183 190 210 215 210 216 227 221 190 177 148 163 156 156 154 156 162 170 175 173 180 188 192 190 192 192 176 144 153 143 138 150 140 133 130 123 127 120 127 129 120 126 107 120 101 102 146 303 30 56 25 60 160 170 173 160 162 168 166 178 183 176 176 185 170
157 172 174 198 194 170 179 186 184 168 145 140 144 156 164 159 160 176 170 172 181 184 199 209 215 220 229 208 179 174 155 160 157 158 158 158 161 170 181 173 182 187 191 193 185 179 181 156 154 141 153 155 150 145 136 142 137 139 153 155 140 93 71 53 41 45 41 54 81 87 36 33 82 116 131 157 167 169 175 167 150 122 111 107 85
172 166 172 189 199 192 187 187 182 171 156 147 147 154 158 165 165 169 160 174 183 185 195 207 211 222 220 198 174 179 158 162 159 159 159 161 160 173 182 172 162 178 191 183 176 177 179 144 143 144 155 151 142 143 141 143 140 143 159 146 100 95 68 47 104 34 11 70 90 104 98 73 76 95 87 95 125 112 110 103 106 123 129 125 118
169 176 199 188 185 191 185 183 179 171 165 156 169 166 168 175 157 140 157 167 193 193 200 218 220 212 200 197 182 169 160 175 163 162 161 160 158 179 182 176 170 173 178 192 190 184 170 145 151 150 156 148 144 143 146 146 148 152 166 140 122 111 119 115 70 59 64 87 96 105 117 111 95 84 82 79 102 127 121 127 150 150 145 137 120
178 174 185 191 179 179 178 175 163 165 171 171 172 173 173 164 170 157 176 152 141 222 222 223 227 214 195 191 197 169 166 179 171 165 164 166 169 179 183 182 176 171 183 197 190 185 179 150 155 149 152 145 149 143 156 153 154 160 167 128 131 118 116 128 103 82 87 90 102 115 120 113 101 87 75 70 63 95 149 163 168 163 153 150 145
216 194 178 173 184 170 178 172 158 168 168 171 173 171 173 174 174 163 179 147 160 213 223 212 209 198 193 195 206 179 161 178 184 169 167 172 173 185 184 192 184 176 185 193 195 186 187 163 159 151 148 151 152 151 165 171 156 168 163 135 143 143 155 145 126 128 137 124 122 116 99 114 94 89 74 66 62 60 76 69 165 176 158 140 129
209 224 183 176 174 149 168 164 165 173 171 158 155 161 150 152 178 172 177 146 168 228 224 211 187 191 183 200 192 192 163 173 185 180 172 175 179 181 192 192 195 182 188 193 184 190 149 151 162 144 135 153 158 159 169 183 171 174 165 153 154 149 151 140 140 138 144 133 137 129 114 111 115 122 97 74 58 56 49 42 45 124 129 133 149
205 214 168 149 145 151 160 180 168 176 173 160 150 151 160 170 184 191 188 177 185 219 223 192 188 196 193 198 199 194 165 167 180 182 183 180 184 182 192 196 195 183 189 198 182 164 132 128 115 144 148 157 162 164 172 171 96 139 152 183 166 150 147 138 156 165 157 144 137 126 127 123 117 96 80 69 69 55 55 48 50 59 117 141 146
239 94 141 155 170 170 167 158 159 161 159 154 147 158 165 154 153 186 221 200 201 197 191 195 207 205 202 195 196 198 162 169 165 190 185 186 184 190 190 197 193 185 185 197 181 152 146 136 140 157 153 160 163 169 163 151 152 358 124 121 131 142 148 148 153 178 156 138 143 145 147 146 121 88 85 83 73 78 71 69 61 68 77 116 135
234 159 149 178 179 172 161 158 161 136 146 139 155 166 162 156 136 164 247 224 214 188 185 196 202 204 205 206 200 183 154 170 170 172 189 187 191 192 196 105 30 185 194 184 165 151 142 135 139 152 152 154 154 149 142 140 136 129 147 140 145 148 145 149 161 174 151 159 166 163 159 136 106 101 94 82 71 80 88 83 82 78 72 69 84
120 47 141 184 170 162 160 159 170 173 162 153 158 155 160 159 146 105 266 236 196 168 173 176 186 226 298 292 325 10 140 157 174 174 176 190 192 197 170 72 58 58 47 162 158 149 134 135 148 149 141 139 139 136 135 130 135 143 143 146 150 151 149 147 158 156 154 182 173 148 135 121 116 112 114 113 121 114 102 98 87 80 80 80 84
82 107 334 288 177 175 170 162 168 169 166 161 157 166 170 174 174 177 213 246 218 183 189 169 120 109 134 73 322 295 294 145 139 186 179 187 189 197 164 112 55 46 93 103 98 113 126 133 135 136 133 132 130 120 118 129 140 142 149 150 147 143 148 152 160 172 177 158 139 128 105 101 119 121 126 132 127 110 95 83 80 79 84 87 86
79 66 133 256 235 169 159 165 170 171 161 165 173 176 168 173 180 185 191 200 219 192 162 158 149 140 147 141 168 240 206 168 156 157 171 168 190 186 162 158 105 64 61 83 109 115 121 126 127 126 125 128 128 131 134 142 143 144 151 153 146 148 156 166 181 149 140 132 117 113 118 114 110 128 133 132 117 117 118 106 109 105 100 97 84
101 117 255 265 258 187 154 162 159 168 173 164 169 166 179 187 198 187 179 179 195 195 181 165 150 153 152 150 162 232 224 197 158 159 160 157 163 140 134 126 117 106 96 102 97 103 118 125 132 128 115 113 104 111 118 126 121 136 164 163 167 179 196 170 152 143 131 116 123 119 121 120 122 127 143 140 133 136 141 140 129 129 118 111 104
120 148 181 329 307 285 174 132 151 158 164 169 176 178 174 186 190 178 180 182 186 190 189 179 173 164 171 167 181 218 211 207 179 174 168 161 149 146 148 149 156 150 123 113 100 107 109 101 98 97 105 102 110 119 133 149 144 157 173 181 138 76 92 83 72 102 117 120 115 118 120 134 144 149 150 145 149 165 169 156 147 136 135 134 114
119 154 184 184 209 238 209 175 171 162 169 173 138 58 229 208 185 180 199 195 196 193 195 191 166 166 169 166 187 222 214 206 199 169 163 162 155 154 159 165 160 141 125 118 107 108 112 117 125 136 142 140 142 148 154 159 163 175 177 175 139 149 136 120 117 115 123 123 131 138 144 149 151 160 160 155 167 178 187 174 154 145 155 151 140
89 215 239 241 236 211 213 203 195 184 179 179 145 107 40 55 33 185 168 19 354 253 193 193 186 183 191 201 204 212 215 205 137 143 147 147 155 163 165 164 142 121 128 134 135 138 145 145 154 147 145 148 152 157 162 164 169 180 182 166 156 157 148 119 123 129 132 135 137 141 155 158 162 169 166 165 176 184 190 172 155 168 168 165 153
293 250 224 227 234 209 198 202 199 189 194 183 165 155 132 48 48 54 62 50 34 29 65 350 246 190 186 200 207 217 192 134 141 140 140 148 156 160 155 136 128 135 135 126 125 138 146 144 148 150 150 153 159 160 164 166 173 177 184 174 166 166 146 132 144 137 139 141 146 153 158 166 167 172 171 172 184 187 163 155 166 181 175 168 168
322 286 263 244 248 219 195 203 196 197 192 189 175 160 158 148 101 37 40 47 47 45 37 36 15 330 210 178 149 26 122 134 135 139 143 151 158 160 147 140 143 143 150 140 139 152 150 148 155 160 161 163 166 165 170 176 175 182 183 181 165 138 136 137 144 143 147 148 151 158 166 170 171 174 172 183 190 170 151 161 174 195 184 204 212
335 295 313 334 339 323 288 222 197 197 190 171 175 171 176 177 167 141 42 53 70 60 48 39 30 4 9 147 146 148 152 146 140 144 150 157 161 163 155 149 150 150 140 133 137 150 161 160 161 162 168 169 168 174 176 185 177 183 188 179 148 147 131 140 143 147 153 156 154 161 171 171 175 182 183 178 165 147 161 168 196 202 171 131 107
332 319 314 255 284 295 279 267 210 201 189 173 179 174 181 170 176 153 150 148 99 64 59 52 36 18 13 61 132 135 141 145 147 151 156 163 165 159 152 154 153 156 151 146 146 158 161 164 168 169 174 169 172 177 180 190 177 183 177 143 146 138 137 145 151 152 154 151 160 163 179 177 173 171 169 156 151 148 171 195 189 190 182 143 116
319 322 253 244 223 204 212 284 302 302 168 160 148 149 159 180 146 149 168 177 178 168 174 51 44 38 18 5 112 144 149 149 150 154 159 164 160 150 130 121 125 129 139 152 164 167 166 167 171 169 171 175 176 181 178 191 174 173 146 144 142 140 144 157 158 158 155 157 163 175 183 167 170 162 156 148 137 147 165 194 175 192 166 142 141
326 300 298 279 259 262 257 223 224 254 265 180 130 134 167 202 185 175 171 166 160 154 134 57 11 14 38 42 49 135 146 147 150 157 161 158 153 146 148 161 154 163 165 170 176 176 169 171 168 167 172 181 172 175 176 181 175 148 151 147 150 150 154 159 156 161 161 162 168 166 161 164 156 154 152 145 141 151 169 197 185 252 102 106 139
343 351 342 339 335 315 286 239 242 227 264 262 189 181 191 203 176 168 169 174 163 171 155 142 124 37 27 32 57 97 121 148 156 159 160 162 166 167 167 165 166 162 168 171 174 179 171 170 169 166 168 166 169 170 172 174 151 140 150 151 153 154 163 163 159 158 157 160 159 159 162 163 160 157 149 155 160 165 180 187 123 106 119 94 81
353 351 343 337 322 319 317 295 306 2 158 150 250 221 203 215 187 185 178 183 173 162 158 173 174 162 173 169 120 117 117 115 112 126 155 163 171 178 171 170 166 166 169 171 169 165 146 146 150 156 164 163 163 164 161 150 143 147 150 152 154 156 152 154 155 159 160 160 159 160 161 166 165 159 151 154 168 166 162 162 118 127 87 86 97
346 351 353 345 330 325 317 321 330 310 286 212 217 250 245 221 192 190 186 178 166 172 174 169 180 180 169 150 143 138 128 140 164 171 174 183 186 178 168 172 170 167 164 160 152 148 145 140 142 141 147 150 147 144 145 142 137 139 147 145 143 143 154 161 165 160 159 161 160 161 160 167 165 165 158 156 162 159 154 146 116 126 109 108 111
342 351 348 346 347 340 334 338 333 320 314 294 246 219 221 213 208 196 150 154 174 181 184 180 187 179 160 165 159 160 173 170 171 172 172 177 184 175 169 168 170 165 165 151 146 143 143 142 139 137 138 130 126 128 130 134 136 138 142 149 152 158 165 164 163 158 162 162 160 163 163 168 169 167 167 161 160 149 145 137 131 131 123 125 127
342 342 344 347 351 342 342 348 337 333 329 334 334 337 296 199 156 103 130 163 175 179 186 189 182 147 160 177 188 199 179 172 170 170 174 169 167 162 161 161 165 165 159 150 148 145 141 133 129 128 127 127 126 127 129 129 129 136 141 143 146 153 159 162 158 157 156 158 163 165 169 170 169 164 170 173 149 138 143 135 132 138 145 143 148
350 349 354 351 346 15 18 9 347 341 3 18 17 7 5 8 6 172 172 172 177 172 161 157 137 123 122 140 204 235 208 168 152 144 124 106 104 109 120 125 129 141 147 141 137 137 133 128 128 129 136 139 142 139 140 140 146 147 148 150 153 157 161 166 165 161 162 162 166 169 172 173 164 158 149 140 136 137 133 136 142 145 151 158 159
359 0 2 358 4 13 19 21 14 17 16 27 40 14 0 21 40 358 283 190 165 160 155 150 138 126 120 124 141 126 83 94 136 136 132 125 113 108 107 104 97 91 101 108 107 117 136 142 138 138 144 152 155 155 155 157 158 159 156 157 158 163 166 165 164 167 169 165 165 167 165 157 154 146 142 140 142 140 145 151 165 152 160 163 157
14 6 2 4 8 18 20 26 31 30 30 40 47 44 32 13 3 41 21 319 254 158 153 146 149 148 145 146 121 104 103 93 77 62 49 52 77 89 90 83 89 103 118 130 140 146 150 146 140 145 148 152 148 151 159 162 163 160 152 155 163 166 167 167 169 170 170 163 156 153 151 151 145 144 144 150 147 146 154 160 175 169 156 150 141
22 18 17 18 13 16 16 17 25 37 41 39 40 40 40 34 23 7 25 63 329 356 68 82 84 118 136 132 125 124 126 130 127 124 112 103 87 81 77 75 71 59 53 76 118 141 147 145 149 150 151 154 158 158 153 138 135 139 149 157 161 168 173 172 174 169 159 151 151 149 148 150 152 152 155 159 158 157 157 165 172 156 143 138 139
18 20 23 25 29 32 31 27 24 32 36 45 51 54 46 41 31 19 358 332 330 94 82 76 71 49 64 95 103 107 108 107 103 100 100 91 87 76 69 65 60 63 67 77 93 105 119 122 129 140 144 148 146 129 131 130 133 141 152 160 164 171 170 162 154 154 154 148 150 151 152 151 160 161 161 158 157 160 159 160 158 148 146 144 144
14 16 16 22 25 30 32 39 42 41 40 38 46 45 51 44 32 15 346 339 41 62 69 64 65 72 57 41 55 82 91 92 94 92 92 94 94 101 107 104 87 66 48 41 44 53 63 85 106 113 121 132 131 122 126 132 137 143 147 155 159 158 155 153 155 158 159 154 150 149 157 160 159 156 160 158 156 156 146 155 151 146 141 140 146
13 14 16 18 26 28 30 33 39 42 50 47 39 44 48 46 44 27 0 355 25 48 61 67 64 60 66 62 50 54 63 73 79 84 89 88 93 91 87 83 89 88 74 67 56 55 52 48 61 85 96 110 123 124 124 125 131 143 152 153 158 157 143 143 152 153 149 149 149 149 152 157 155 154 161 159 159 147 141 146 131 139 136 134 141
17 18 21 21 24 26 31 34 32 31 37 43 44 43 47 49 43 35 18 9 13 31 44 53 59 57 55 55 50 46 53 66 70 66 63 62 64 72 86 92 91 89 87 80 71 59 58 60 63 69 84 87 88 95 109 118 126 139 144 146 137 135 140 145 146 147 144 140 136 142 146 152 150 153 151 148 145 136 134 131 133 137 132 131 132
27 26 32 30 34 32 31 36 39 36 25 25 38 58 59 56 48 42 28 11 12 24 33 40 50 55 57 57 59 60 61 64 65 65 65 65 68 72 75 79 86 90 89 87 75 66 67 72 74 76 79 80 83 89 91 97 103 112 114 131 139 141 142 139 137 138 141 144 143 149 144 136 137 136 126 125 132 132 132 139 141 141 138 137 140
27 27 28 29 33 39 42 45 46 44 43 39 30 30 46 57 57 47 34 23 15 15 23 35 45 49 53 55 65 70 70 73 72 73 65 55 48 61 76 86 88 88 90 88 88 75 70 67 70 64 69 82 79 78 83 100 108 114 123 130 129 129 132 134 141 151 143 134 136 127 120 128 130 124 125 129 130 132 141 143 144 145 144 146 145